QPF
0.00 0.00 0.00 0.00 0.00 0.00 0.00 0.00 0.00 0.00 0.00 0.00 0.00 0.00 0.00 0.00 0.00 0.00 0.00 0.00 0.00 0.00 0.00 0.00 0.00 0.00 0.00 0.00 0.00 0.00 0.00 0.00 0.00 0.00 0.00 0.00 0.00 0.00 0.00 0.00 0.00 0.00 0.00 0.00 0.00
0.00 0.00 0.00 0.00 0.00 0.00 0.00 0.00 0.00 0.00 0.00 0.00 0.00 0.00 0.00 0.00 0.00 0.00 0.00 0.00 0.00 0.00 0.00 0.00 0.00 0.00 0.00 0.00 0.00 0.00 0.00 0.00 0.00 0.00 0.00 0.00 0.00 0.00 0.00 0.00 0.00 0.00 0.00 0.00 0.00
0.00 0.00 0.00 0.00 0.00 0.00 0.00 0.00 0.00 0.00 0.00 0.00 0.00 0.00 0.00 0.00 0.00 0.00 0.00 0.00 0.00 0.00 0.00 0.00 0.00 0.00 0.00 0.00 0.00 0.00 0.00 0.00 0.00 0.00 0.00 0.00 0.00 0.00 0.00 0.00 0.00 0.00 0.00 0.00 0.00
0.00 0.00 0.00 0.00 0.00 0.00 0.00 0.00 0.00 0.00 0.00 0.00 0.00 0.00 0.00 0.00 0.00 0.00 0.00 0.00 0.00 0.00 0.00 0.00 0.00 0.00 0.00 0.00 0.00 0.00 0.00 0.00 0.00 0.00 0.00 0.00 0.00 0.00 0.00 0.00 0.00 0.00 0.00 0.00 0.00
0.00 0.00 0.00 0.00 0.00 0.00 0.00 0.00 0.00 0.00 0.00 0.00 0.00 0.00 0.00 0.00 0.00 0.00 0.00 0.00 0.00 0.00 0.00 0.00 0.00 0.00 0.00 0.00 0.00 0.00 0.00 0.00 0.00 0.00 0.00 0.00 0.00 0.00 0.00 0.00 0.00 0.00 0.00 0.00 0.00
0.00 0.00 0.00 0.00 0.00 0.00 0.00 0.00 0.00 0.00 0.00 0.00 0.00 0.00 0.00 0.00 0.00 0.00 0.00 0.00 0.00 0.00 0.00 0.00 0.00 0.00 0.00 0.00 0.00 0.00 0.00 0.00 0.00 0.00 0.00 0.00 0.00 0.00 0.00 0.00 0.00 0.00 0.00 0.00 0.00
0.00 0.00 0.00 0.00 0.00 0.00 0.00 0.00 0.00 0.00 0.00 0.00 0.00 0.00 0.00 0.00 0.00 0.00 0.00 0.00 0.00 0.00 0.00 0.00 0.00 0.00 0.00 0.00 0.00 0.00 0.00 0.00 0.00 0.00 0.00 0.00 0.00 0.00 0.00 0.00 0.00 0.00 0.00 0.00 0.00
0.00 0.00 0.00 0.00 0.00 0.00 0.00 0.00 0.00 0.00 0.00 0.00 0.00 0.00 0.00 0.00 0.00 0.00 0.00 0.00 0.00 0.00 0.00 0.00 0.00 0.00 0.00 0.00 0.00 0.00 0.00 0.00 0.00 0.00 0.00 0.00 0.00 0.00 0.00 0.00 0.00 0.00 0.00 0.00 0.00
0.00 0.00 0.00 0.00 0.00 0.00 0.00 0.00 0.00 0.00 0.00 0.00 0.00 0.00 0.00 0.00 0.00 0.00 0.00 0.00 0.00 0.00 0.00 0.00 0.00 0.00 0.00 0.00 0.00 0.00 0.00 0.00 0.00 0.00 0.00 0.00 0.00 0.00 0.00 0.00 0.00 0.00 0.00 0.00 0.00
0.00 0.00 0.00 0.00 0.00 0.00 0.00 0.00 0.00 0.00 0.00 0.00 0.00 0.00 0.00 0.00 0.00 0.00 0.00 0.00 0.00 0.00 0.00 0.00 0.00 0.00 0.00 0.00 0.00 0.00 0.00 0.00 0.00 0.00 0.00 0.00 0.00 0.00 0.00 0.00 0.00 0.00 0.00 0.00 0.00
0.00 0.00 0.00 0.00 0.00 0.00 0.00 0.00 0.00 0.00 0.00 0.00 0.00 0.00 0.00 0.00 0.00 0.00 0.00 0.00 0.00 0.00 0.00 0.00 0.00 0.00 0.00 0.00 0.00 0.00 0.00 0.00 0.00 0.00 0.00 0.00 0.00 0.00 0.00 0.00 0.00 0.00 0.00 0.00 0.00
0.00 0.00 0.00 0.00 0.00 0.00 0.00 0.00 0.00 0.00 0.00 0.00 0.00 0.00 0.00 0.00 0.00 0.00 0.00 0.00 0.00 0.00 0.00 0.00 0.00 0.00 0.00 0.00 0.00 0.00 0.00 0.00 0.00 0.00 0.00 0.00 0.00 0.00 0.00 0.00 0.00 0.00 0.00 0.00 0.00
0.00 0.00 0.00 0.00 0.00 0.00 0.00 0.00 0.00 0.00 0.00 0.00 0.00 0.00 0.00 0.00 0.00 0.00 0.00 0.00 0.00 0.00 0.00 0.00 0.00 0.00 0.00 0.00 0.00 0.00 0.00 0.00 0.00 0.00 0.00 0.00 0.00 0.00 0.00 0.00 0.00 0.00 0.00 0.00 0.00
0.00 0.00 0.00 0.00 0.00 0.00 0.00 0.00 0.00 0.00 0.00 0.00 0.00 0.00 0.00 0.00 0.00 0.00 0.00 0.00 0.00 0.00 0.00 0.00 0.00 0.00 0.00 0.00 0.00 0.00 0.00 0.00 0.00 0.00 0.00 0.00 0.00 0.00 0.00 0.00 0.00 0.00 0.00 0.00 0.00
0.00 0.00 0.00 0.00 0.00 0.00 0.00 0.00 0.00 0.00 0.00 0.00 0.00 0.00 0.00 0.00 0.00 0.00 0.00 0.00 0.00 0.00 0.00 0.00 0.00 0.00 0.00 0.00 0.00 0.00 0.00 0.00 0.00 0.00 0.00 0.00 0.00 0.00 0.00 0.00 0.00 0.00 0.00 0.00 0.00
0.00 0.00 0.00 0.00 0.00 0.00 0.00 0.00 0.00 0.00 0.00 0.00 0.00 0.00 0.00 0.00 0.00 0.00 0.00 0.00 0.00 0.00 0.00 0.00 0.00 0.00 0.00 0.00 0.00 0.00 0.00 0.00 0.00 0.00 0.00 0.00 0.00 0.00 0.00 0.00 0.00 0.00 0.00 0.00 0.00
0.00 0.00 0.00 0.00 0.00 0.00 0.00 0.00 0.00 0.00 0.00 0.00 0.00 0.00 0.00 0.00 0.00 0.00 0.00 0.00 0.00 0.00 0.00 0.00 0.00 0.00 0.00 0.00 0.00 0.00 0.00 0.00 0.00 0.00 0.00 0.00 0.00 0.00 0.00 0.00 0.00 0.00 0.00 0.00 0.00
0.00 0.00 0.00 0.00 0.00 0.00 0.00 0.00 0.00 0.00 0.00 0.00 0.00 0.00 0.00 0.00 0.00 0.00 0.00 0.00 0.00 0.00 0.00 0.00 0.00 0.00 0.00 0.00 0.00 0.00 0.00 0.00 0.00 0.00 0.00 0.00 0.00 0.00 0.00 0.00 0.00 0.00 0.00 0.00 0.00
0.00 0.00 0.00 0.00 0.00 0.00 0.00 0.00 0.00 0.00 0.00 0.00 0.00 0.00 0.00 0.00 0.00 0.00 0.00 0.00 0.00 0.00 0.00 0.00 0.00 0.00 0.00 0.00 0.00 0.00 0.00 0.00 0.00 0.00 0.00 0.00 0.00 0.00 0.00 0.00 0.00 0.00 0.00 0.00 0.00
0.00 0.00 0.00 0.00 0.00 0.00 0.00 0.00 0.00 0.00 0.00 0.00 0.00 0.00 0.00 0.00 0.00 0.00 0.00 0.00 0.00 0.00 0.00 0.00 0.00 0.00 0.00 0.00 0.00 0.00 0.00 0.00 0.00 0.00 0.00 0.00 0.00 0.00 0.00 0.00 0.00 0.00 0.00 0.00 0.00
0.00 0.00 0.00 0.00 0.00 0.00 0.00 0.00 0.00 0.00 0.00 0.00 0.00 0.00 0.00 0.00 0.00 0.00 0.00 0.00 0.00 0.00 0.00 0.00 0.00 0.00 0.00 0.00 0.00 0.00 0.00 0.00 0.00 0.00 0.00 0.00 0.00 0.00 0.00 0.00 0.00 0.00 0.00 0.00 0.00
0.00 0.00 0.00 0.00 0.00 0.00 0.00 0.00 0.00 0.00 0.00 0.00 0.00 0.00 0.00 0.00 0.00 0.00 0.00 0.00 0.00 0.00 0.00 0.00 0.00 0.00 0.00 0.00 0.00 0.00 0.00 0.00 0.00 0.00 0.00 0.00 0.00 0.00 0.00 0.00 0.00 0.00 0.00 0.00 0.00
0.00 0.00 0.00 0.00 0.00 0.00 0.00 0.00 0.00 0.00 0.00 0.00 0.00 0.00 0.00 0.00 0.00 0.00 0.00 0.00 0.00 0.00 0.00 0.00 0.00 0.00 0.00 0.00 0.00 0.00 0.00 0.00 0.00 0.00 0.00 0.00 0.00 0.00 0.00 0.00 0.00 0.00 0.00 0.00 0.00
0.00 0.00 0.00 0.00 0.00 0.00 0.00 0.00 0.00 0.00 0.00 0.00 0.00 0.00 0.00 0.00 0.00 0.00 0.00 0.00 0.00 0.00 0.00 0.00 0.00 0.00 0.00 0.00 0.00 0.00 0.00 0.00 0.00 0.00 0.00 0.00 0.00 0.00 0.00 0.00 0.00 0.00 0.00 0.00 0.00
0.00 0.00 0.00 0.00 0.00 0.00 0.00 0.00 0.00 0.00 0.00 0.00 0.00 0.00 0.00 0.00 0.00 0.00 0.00 0.00 0.00 0.00 0.00 0.00 0.00 0.00 0.00 0.00 0.00 0.00 0.00 0.00 0.00 0.00 0.00 0.00 0.00 0.00 0.00 0.00 0.00 0.00 0.00 0.00 0.00
0.00 0.00 0.00 0.00 0.00 0.00 0.00 0.00 0.00 0.00 0.00 0.00 0.00 0.00 0.00 0.00 0.00 0.00 0.00 0.00 0.00 0.00 0.00 0.00 0.00 0.00 0.00 0.00 0.00 0.00 0.00 0.00 0.00 0.00 0.00 0.00 0.00 0.00 0.00 0.00 0.00 0.00 0.00 0.00 0.00
0.00 0.00 0.00 0.00 0.00 0.00 0.00 0.00 0.00 0.00 0.00 0.00 0.00 0.00 0.00 0.00 0.00 0.00 0.00 0.00 0.00 0.00 0.00 0.00 0.00 0.00 0.00 0.00 0.00 0.00 0.00 0.00 0.00 0.00 0.00 0.00 0.00 0.00 0.00 0.00 0.00 0.00 0.00 0.00 0.00
MSLP
1016.54 1016.00 1015.52 1014.98 1014.52 1014.14 1013.65 1013.09 1012.60 1012.25 1012.16 1012.11 1011.98 1011.94 1011.85 1011.63 1011.42 1011.51 1009.86 1007.77 1007.73 1008.12 1008.41 1008.74 1008.62 1008.41 1008.26 1007.89 1007.89 1007.79 1007.15 1006.86 1006.69 1006.45 1006.47 1006.93 1007.16 1008.28 1008.77 1009.28 1010.19 1010.87 1011.54 1012.55 1014.24
1016.66 1016.07 1015.51 1014.97 1014.42 1014.05 1013.57 1013.02 1012.49 1012.10 1011.91 1011.91 1011.76 1011.57 1011.57 1011.55 1010.95 1009.59 1007.11 1007.43 1007.53 1007.84 1007.95 1007.97 1007.93 1007.87 1007.64 1007.59 1007.52 1007.12 1006.82 1006.71 1006.76 1006.29 1006.21 1006.62 1007.17 1007.97 1008.65 1009.22 1010.56 1011.51 1012.56 1013.48 1014.44
1016.68 1016.08 1015.50 1014.98 1014.38 1013.92 1013.44 1012.88 1012.39 1012.02 1011.76 1011.65 1011.53 1011.37 1011.27 1011.24 1010.14 1007.48 1006.60 1007.27 1007.47 1007.68 1007.58 1007.61 1007.64 1007.47 1007.27 1007.38 1007.36 1007.13 1006.63 1006.71 1006.40 1006.34 1006.23 1006.55 1007.31 1007.93 1008.24 1008.98 1009.77 1011.19 1012.61 1013.76 1014.51
1016.71 1016.10 1015.52 1014.97 1014.34 1013.79 1013.32 1012.78 1012.23 1011.84 1011.58 1011.37 1011.24 1011.15 1011.10 1010.80 1008.94 1007.00 1006.79 1007.20 1007.51 1007.58 1007.53 1007.53 1007.46 1007.24 1007.14 1006.96 1007.19 1006.94 1006.63 1006.57 1006.32 1006.29 1006.24 1006.41 1007.02 1007.80 1008.37 1008.93 1009.56 1011.25 1012.31 1013.34 1014.26
1016.77 1016.12 1015.51 1014.91 1014.29 1013.64 1013.09 1012.59 1012.11 1011.67 1011.41 1011.19 1011.09 1011.05 1010.95 1009.80 1007.63 1006.89 1006.81 1007.27 1007.54 1007.53 1007.37 1007.36 1007.23 1007.13 1006.94 1006.95 1007.00 1006.84 1006.54 1006.37 1006.16 1005.94 1006.02 1006.51 1007.14 1007.84 1009.02 1009.64 1010.38 1011.67 1012.99 1013.60 1014.18
1016.76 1016.15 1015.46 1014.79 1014.13 1013.49 1012.84 1012.32 1011.88 1011.58 1011.28 1011.11 1011.07 1011.08 1010.26 1008.49 1006.92 1007.02 1007.02 1007.29 1007.24 1007.33 1007.37 1007.33 1007.11 1007.04 1006.98 1007.05 1007.03 1006.93 1006.63 1006.15 1006.01 1005.89 1006.12 1006.50 1007.47 1007.98 1009.86 1010.40 1011.06 1012.02 1012.70 1013.43 1013.90
1016.66 1016.04 1015.37 1014.67 1013.98 1013.31 1012.58 1012.02 1011.55 1011.29 1011.17 1011.05 1011.10 1010.93 1009.57 1007.62 1006.89 1007.12 1007.10 1007.14 1007.33 1007.21 1007.25 1007.44 1007.25 1007.04 1007.07 1006.89 1007.03 1006.89 1006.54 1005.87 1006.07 1006.05 1006.32 1006.78 1007.36 1008.34 1009.63 1010.40 1011.20 1012.04 1012.74 1013.35 1013.81
1016.60 1015.86 1015.19 1014.50 1013.82 1013.15 1012.41 1011.71 1011.05 1010.92 1011.02 1011.11 1011.13 1010.65 1008.27 1007.05 1006.93 1007.08 1007.10 1007.36 1007.56 1007.40 1007.25 1007.36 1007.30 1007.19 1007.15 1007.21 1007.11 1006.79 1006.63 1006.01 1006.10 1006.02 1006.55 1006.67 1007.11 1008.75 1009.68 1010.27 1011.21 1011.90 1012.58 1013.14 1013.55
1016.48 1015.70 1014.97 1014.27 1013.59 1012.94 1012.28 1011.62 1011.06 1010.95 1011.00 1011.11 1010.99 1009.94 1007.54 1007.12 1006.92 1006.67 1006.76 1006.82 1007.34 1007.46 1007.37 1007.29 1007.25 1007.37 1007.35 1007.00 1006.99 1006.84 1006.29 1006.29 1006.14 1006.25 1006.35 1006.59 1007.29 1008.65 1009.60 1010.13 1010.91 1011.59 1012.11 1012.61 1013.19
1016.34 1015.54 1014.79 1014.04 1013.36 1012.75 1012.11 1011.67 1011.15 1011.00 1011.03 1010.87 1010.21 1009.34 1006.95 1006.14 1006.06 1006.45 1006.78 1006.75 1006.74 1007.12 1007.24 1007.30 1007.30 1007.22 1007.34 1006.93 1006.25 1006.50 1006.47 1006.55 1006.31 1006.45 1006.66 1006.79 1007.41 1008.46 1009.36 1009.85 1010.63 1011.33 1011.87 1012.21 1012.51
1016.24 1015.39 1014.55 1013.76 1013.07 1012.60 1011.98 1011.38 1011.27 1010.75 1010.04 1008.50 1007.89 1007.05 1005.97 1005.62 1005.62 1006.02 1006.23 1006.37 1006.37 1006.65 1006.79 1007.31 1006.93 1006.52 1006.47 1006.67 1006.76 1006.88 1006.91 1006.65 1006.56 1006.58 1006.70 1006.85 1007.51 1008.24 1009.17 1009.69 1010.17 1010.82 1011.33 1011.71 1011.97
1016.10 1015.28 1014.34 1013.44 1012.64 1012.14 1011.86 1010.64 1009.54 1009.49 1008.52 1007.22 1007.02 1006.43 1005.77 1005.42 1005.21 1005.63 1005.84 1005.84 1005.98 1006.19 1006.72 1006.94 1006.28 1006.27 1006.58 1006.75 1006.79 1006.82 1006.74 1006.50 1006.71 1006.87 1006.80 1007.52 1008.07 1008.70 1009.10 1009.33 1009.63 1010.16 1010.78 1011.21 1011.86
1015.94 1015.19 1014.25 1013.16 1012.27 1011.81 1011.22 1009.73 1009.17 1008.93 1008.18 1006.55 1006.03 1005.44 1004.99 1005.05 1004.71 1004.92 1005.34 1005.45 1005.68 1006.10 1006.32 1006.25 1006.29 1006.11 1006.24 1006.41 1006.41 1006.42 1006.21 1006.26 1006.34 1007.06 1007.48 1007.73 1008.41 1008.76 1009.07 1009.40 1009.60 1009.97 1010.37 1010.86 1011.44
1015.73 1015.02 1014.33 1013.14 1012.18 1011.87 1010.26 1009.31 1009.10 1008.76 1007.66 1005.82 1005.19 1004.09 1004.46 1004.43 1004.52 1004.39 1004.71 1004.87 1005.45 1005.66 1006.22 1006.15 1005.95 1005.89 1005.93 1005.86 1005.92 1005.83 1006.20 1006.34 1006.49 1006.78 1007.13 1007.90 1007.57 1008.38 1008.56 1008.71 1009.17 1009.41 1009.88 1010.32 1011.04
1015.43 1014.81 1014.38 1014.28 1013.04 1011.44 1009.67 1009.30 1008.82 1008.45 1006.62 1004.64 1004.19 1003.74 1003.68 1003.74 1003.80 1004.45 1004.52 1004.69 1004.89 1005.38 1006.00 1005.39 1005.35 1005.43 1005.35 1005.08 1005.45 1006.01 1006.32 1006.64 1006.96 1007.13 1007.41 1007.95 1007.92 1007.77 1008.43 1008.30 1007.95 1008.95 1009.44 1010.00 1010.78
1014.90 1014.38 1014.11 1013.56 1013.06 1010.16 1009.57 1009.09 1008.57 1007.77 1005.31 1003.80 1003.38 1003.35 1003.48 1003.46 1003.63 1004.14 1004.43 1004.66 1005.07 1005.29 1005.49 1005.17 1005.17 1004.90 1004.60 1005.17 1005.58 1006.13 1006.37 1006.83 1007.27 1007.27 1007.31 1008.00 1008.04 1007.29 1007.69 1006.95 1006.83 1008.16 1008.98 1009.76 1010.60
1014.19 1013.34 1013.65 1012.99 1010.83 1009.94 1009.50 1008.63 1008.02 1006.48 1004.32 1003.35 1002.84 1002.91 1002.70 1002.98 1003.45 1003.66 1004.01 1004.34 1004.44 1004.93 1004.84 1004.90 1004.64 1004.55 1004.57 1005.05 1005.92 1005.96 1006.08 1006.48 1006.90 1007.12 1007.56 1008.53 1008.28 1007.10 1007.21 1007.35 1007.21 1007.79 1008.48 1009.44 1010.36
1013.42 1012.27 1011.58 1011.21 1010.33 1010.13 1009.17 1008.19 1006.96 1004.91 1003.81 1002.92 1002.55 1002.62 1002.50 1002.70 1003.06 1003.47 1003.75 1004.08 1004.55 1004.44 1004.56 1004.40 1004.45 1004.35 1004.40 1004.54 1004.98 1005.88 1005.99 1006.13 1006.70 1007.43 1007.89 1008.76 1007.72 1006.83 1007.22 1007.38 1007.29 1007.50 1008.32 1009.41 1010.26
1012.79 1011.48 1010.88 1009.88 1010.03 1010.24 1008.78 1007.24 1005.52 1004.53 1003.58 1002.88 1002.61 1002.33 1002.43 1002.50 1002.54 1003.13 1003.30 1003.44 1003.70 1004.08 1003.94 1004.35 1004.29 1004.36 1004.57 1004.72 1005.25 1006.28 1006.54 1006.98 1007.18 1008.65 1008.19 1008.00 1007.73 1007.00 1007.21 1007.17 1007.17 1007.50 1008.30 1009.15 1010.01
1013.28 1011.77 1009.95 1009.25 1009.60 1009.28 1008.07 1006.30 1005.27 1004.39 1003.64 1003.03 1002.24 1001.91 1001.79 1002.10 1002.42 1002.70 1003.09 1002.85 1003.23 1003.59 1003.65 1004.33 1004.43 1004.54 1005.17 1005.00 1005.87 1005.72 1006.70 1007.07 1007.16 1007.55 1007.63 1007.46 1007.45 1006.88 1006.84 1007.17 1007.59 1007.85 1008.20 1008.87 1009.77
1013.14 1011.16 1009.51 1009.20 1009.28 1008.49 1006.93 1005.86 1004.93 1004.04 1003.74 1003.08 1002.39 1002.00 1001.75 1001.69 1001.82 1002.19 1002.39 1002.58 1002.63 1003.40 1003.77 1004.28 1004.64 1005.03 1005.22 1005.05 1005.12 1006.34 1006.45 1007.06 1007.22 1007.57 1007.23 1007.08 1006.63 1006.71 1006.98 1007.23 1007.57 1007.86 1008.29 1008.93 1009.66
1013.46 1011.06 1009.38 1009.50 1008.61 1008.21 1006.71 1005.72 1004.72 1003.80 1003.51 1003.02 1002.73 1002.12 1001.81 1001.74 1001.66 1001.83 1001.90 1002.17 1002.54 1002.85 1003.66 1004.16 1004.23 1004.55 1004.99 1005.45 1005.69 1005.61 1005.73 1006.01 1006.33 1007.59 1007.95 1007.57 1006.57 1006.77 1007.23 1007.28 1007.47 1007.66 1008.08 1008.73 1009.33
1013.96 1011.74 1009.27 1008.81 1008.02 1007.49 1006.67 1005.53 1004.66 1003.91 1003.40 1003.00 1002.54 1002.22 1002.00 1001.83 1002.03 1001.84 1002.10 1002.59 1002.90 1002.95 1003.16 1003.98 1004.39 1004.61 1005.13 1005.64 1005.90 1005.62 1006.01 1006.32 1006.67 1007.03 1007.20 1007.06 1006.34 1006.84 1007.14 1007.38 1007.66 1007.84 1008.36 1009.00 1009.74
1014.33 1011.97 1009.64 1008.89 1008.73 1007.63 1006.63 1005.62 1004.72 1004.08 1003.66 1003.28 1002.76 1002.48 1002.25 1002.15 1002.23 1002.06 1002.33 1002.89 1003.17 1003.38 1003.60 1003.83 1004.17 1003.83 1003.82 1003.73 1004.32 1005.33 1005.71 1006.18 1005.87 1006.21 1006.32 1006.43 1006.20 1006.52 1006.95 1007.47 1007.99 1008.34 1008.72 1009.38 1010.07
1014.48 1012.95 1012.15 1009.98 1009.06 1008.22 1007.35 1006.26 1005.17 1004.50 1004.16 1003.77 1003.11 1002.76 1002.46 1002.49 1002.36 1002.21 1002.44 1002.88 1003.36 1003.84 1004.22 1004.24 1004.25 1004.63 1004.63 1004.43 1004.40 1004.49 1004.98 1005.62 1005.75 1005.99 1006.05 1005.94 1006.33 1006.40 1006.97 1007.29 1007.47 1008.03 1008.80 1009.44 1010.15
1015.10 1014.10 1012.78 1011.29 1010.19 1009.04 1007.85 1006.82 1005.95 1005.36 1004.84 1004.12 1003.76 1003.12 1003.08 1002.87 1002.35 1002.27 1002.43 1002.80 1002.90 1004.08 1004.30 1004.83 1005.03 1005.15 1005.18 1005.15 1004.89 1004.86 1005.22 1005.40 1005.84 1006.15 1006.27 1006.31 1006.29 1006.69 1006.98 1007.49 1007.77 1007.88 1008.40 1008.87 1009.54
1015.85 1015.33 1014.27 1011.95 1010.38 1009.39 1008.31 1007.58 1006.85 1006.40 1005.35 1005.00 1004.58 1004.17 1004.11 1004.16 1003.72 1003.34 1003.25 1003.16 1003.36 1003.81 1004.53 1005.03 1005.22 1005.52 1005.54 1005.86 1005.60 1005.52 1005.12 1005.20 1005.53 1005.75 1005.66 1005.98 1006.10 1006.57 1006.91 1007.29 1007.32 1007.48 1007.89 1008.19 1008.86
Thickness
5758 5765 5770 5776 5781 5784 5789 5795 5801 5805 5807 5808 5809 5810 5811 5814 5817 5817 5824 5845 5847 5847 5845 5840 5839 5839 5841 5835 5838 5836 5813 5801 5808 5811 5814 5826 5820 5823 5826 5815 5813 5813 5807 5802 5792
5755 5763 5769 5775 5781 5785 5790 5795 5802 5806 5810 5811 5812 5814 5815 5816 5821 5826 5853 5853 5853 5851 5845 5839 5833 5838 5832 5832 5834 5828 5814 5812 5828 5834 5826 5829 5826 5820 5816 5813 5802 5801 5803 5799 5793
5753 5760 5768 5774 5780 5785 5791 5796 5802 5807 5811 5813 5815 5817 5818 5819 5825 5841 5859 5855 5854 5854 5853 5849 5845 5839 5829 5832 5830 5826 5818 5828 5835 5839 5838 5832 5825 5829 5821 5808 5814 5801 5797 5795 5791
5749 5757 5765 5772 5779 5785 5791 5797 5803 5808 5812 5815 5817 5819 5820 5823 5814 5852 5859 5856 5855 5855 5852 5844 5839 5829 5824 5824 5833 5822 5834 5836 5840 5842 5836 5831 5837 5824 5826 5822 5830 5815 5808 5801 5792
5745 5754 5762 5770 5778 5785 5791 5797 5803 5809 5813 5816 5819 5820 5823 5826 5835 5857 5859 5856 5854 5853 5846 5840 5835 5831 5822 5828 5832 5825 5833 5841 5845 5845 5843 5841 5831 5827 5820 5825 5825 5815 5804 5798 5794
5741 5750 5759 5768 5776 5784 5792 5798 5804 5809 5813 5816 5818 5819 5826 5823 5855 5856 5857 5855 5854 5850 5844 5845 5840 5842 5832 5829 5827 5832 5833 5839 5844 5844 5842 5836 5828 5832 5814 5821 5813 5808 5804 5800 5797
5737 5746 5756 5766 5774 5783 5792 5799 5805 5809 5813 5816 5817 5820 5826 5836 5856 5854 5856 5853 5855 5853 5842 5846 5849 5841 5836 5828 5837 5832 5824 5839 5838 5842 5836 5840 5821 5817 5822 5821 5809 5805 5803 5799 5798
5732 5743 5752 5762 5772 5780 5790 5799 5807 5810 5812 5814 5815 5820 5828 5853 5855 5852 5854 5849 5852 5854 5852 5852 5852 5840 5834 5837 5828 5820 5822 5812 5833 5840 5836 5838 5811 5817 5825 5820 5807 5806 5802 5799 5798
5728 5739 5749 5760 5769 5778 5788 5796 5803 5807 5809 5812 5816 5821 5828 5851 5844 5854 5855 5846 5846 5848 5850 5852 5845 5828 5828 5816 5809 5812 5804 5806 5818 5836 5835 5834 5816 5820 5826 5822 5810 5808 5805 5802 5799
5725 5735 5745 5756 5767 5776 5785 5791 5798 5803 5806 5810 5817 5816 5837 5839 5850 5851 5853 5851 5843 5840 5835 5833 5827 5819 5812 5811 5793 5799 5802 5805 5808 5826 5828 5824 5821 5822 5823 5824 5814 5811 5807 5804 5803
5721 5731 5742 5753 5764 5772 5782 5790 5796 5799 5805 5820 5826 5828 5838 5850 5856 5847 5852 5846 5844 5834 5817 5820 5813 5806 5816 5815 5813 5807 5800 5800 5812 5827 5823 5825 5822 5821 5822 5823 5819 5814 5811 5808 5808
5717 5727 5739 5750 5762 5771 5777 5790 5799 5802 5800 5822 5823 5828 5840 5848 5833 5840 5852 5832 5828 5813 5817 5812 5806 5821 5819 5813 5808 5804 5799 5805 5814 5820 5824 5812 5807 5814 5819 5821 5825 5821 5816 5813 5810
5712 5723 5735 5747 5760 5768 5776 5789 5798 5803 5794 5813 5823 5827 5836 5842 5832 5834 5843 5832 5821 5809 5810 5805 5813 5821 5815 5809 5804 5806 5808 5806 5811 5811 5813 5809 5796 5803 5815 5818 5822 5824 5823 5819 5813
5708 5718 5728 5743 5759 5760 5777 5788 5793 5799 5779 5801 5813 5830 5835 5839 5825 5848 5849 5837 5819 5811 5807 5809 5821 5814 5809 5807 5815 5804 5818 5815 5810 5805 5791 5803 5784 5793 5808 5813 5815 5820 5819 5820 5815
5705 5714 5721 5727 5742 5759 5776 5781 5789 5792 5747 5805 5810 5842 5835 5830 5833 5829 5848 5835 5814 5811 5808 5809 5812 5807 5806 5817 5821 5808 5815 5807 5801 5794 5792 5787 5785 5805 5799 5803 5816 5815 5818 5819 5816
5702 5711 5717 5727 5733 5761 5768 5776 5782 5756 5742 5794 5813 5811 5814 5822 5824 5826 5827 5836 5828 5812 5809 5812 5824 5822 5824 5818 5819 5812 5807 5798 5792 5792 5775 5776 5780 5792 5792 5812 5826 5822 5819 5817 5813
5701 5713 5714 5723 5750 5755 5761 5770 5743 5736 5789 5789 5798 5808 5813 5807 5810 5814 5809 5805 5802 5785 5789 5803 5811 5822 5827 5809 5809 5808 5800 5771 5765 5767 5764 5768 5769 5792 5805 5811 5820 5818 5818 5815 5812
5700 5714 5723 5731 5742 5746 5754 5751 5722 5763 5772 5800 5799 5800 5796 5804 5805 5804 5800 5793 5802 5802 5789 5787 5781 5811 5822 5818 5808 5800 5801 5778 5744 5752 5764 5759 5764 5795 5806 5811 5816 5822 5819 5812 5806
5697 5714 5721 5733 5736 5737 5746 5729 5747 5759 5779 5785 5790 5786 5788 5798 5802 5798 5798 5799 5808 5806 5792 5782 5787 5813 5816 5818 5815 5788 5786 5792 5765 5743 5756 5765 5777 5801 5802 5804 5809 5813 5810 5805 5803
5685 5702 5720 5728 5730 5736 5736 5734 5751 5765 5775 5781 5776 5789 5782 5790 5791 5793 5787 5808 5805 5810 5816 5794 5780 5802 5800 5814 5803 5804 5794 5776 5773 5741 5738 5762 5758 5774 5795 5795 5796 5800 5801 5802 5799
5680 5705 5716 5719 5723 5727 5727 5739 5750 5767 5770 5771 5774 5778 5785 5786 5797 5790 5794 5806 5813 5803 5809 5799 5788 5784 5794 5795 5795 5783 5782 5771 5777 5764 5755 5748 5766 5797 5793 5795 5793 5798 5800 5798 5794
5666 5695 5705 5707 5714 5706 5722 5733 5749 5760 5769 5771 5774 5780 5781 5787 5786 5791 5795 5802 5812 5810 5793 5803 5796 5778 5785 5791 5795 5795 5792 5792 5775 5748 5749 5752 5768 5796 5791 5795 5799 5799 5798 5797 5795
5657 5670 5696 5703 5705 5708 5715 5730 5742 5751 5757 5763 5767 5777 5783 5782 5774 5788 5790 5801 5804 5805 5796 5795 5782 5768 5767 5779 5785 5785 5780 5777 5771 5767 5748 5750 5768 5789 5790 5789 5793 5794 5791 5787 5784
5644 5669 5685 5690 5687 5700 5709 5720 5729 5745 5748 5756 5763 5771 5772 5772 5776 5777 5784 5791 5798 5798 5790 5798 5777 5784 5774 5788 5794 5770 5773 5773 5783 5764 5763 5762 5773 5781 5782 5779 5780 5780 5784 5780 5773
5628 5646 5647 5674 5679 5684 5692 5706 5717 5727 5738 5744 5751 5759 5766 5759 5765 5771 5778 5784 5790 5784 5786 5791 5776 5772 5771 5780 5783 5784 5777 5767 5767 5768 5759 5768 5760 5776 5775 5778 5782 5780 5773 5767 5761
5613 5624 5635 5650 5654 5668 5676 5693 5705 5713 5720 5731 5736 5752 5757 5756 5772 5768 5775 5775 5783 5779 5780 5774 5758 5764 5759 5765 5770 5766 5769 5769 5765 5756 5754 5752 5756 5772 5774 5768 5765 5768 5765 5760 5757
5583 5591 5608 5633 5650 5660 5672 5680 5690 5696 5715 5722 5727 5735 5741 5746 5758 5764 5769 5772 5776 5775 5765 5764 5756 5755 5747 5746 5751 5741 5760 5765 5762 5763 5764 5743 5762 5766 5764 5761 5764 5764 5761 5758 5754